Starlink 30595

operational
NORAD ID: 58111 Int'l Des: 2023-161 Owner: SPXS Country: US Constellation: starlink
LEOCIRCULAR

关于 Starlink 30595

正在加载描述...

实时位置

正在加载3D地球...

即将过境

高度历史

Altitude vs Time

uPlot chart will show altitude changes over time

两行轨道根数

1 58111U 23161Q 25347.63086334 .00003166 00000-0 11895-3 0 9996
2 58111 53.1580 205.4090 0001188 81.8659 278.2476 15.30206565121244
Epoch: Dec 13, 2025 • Age: 14 hours

当前状态

高度 479.1 km
速度 7.63 km/s
星下点 44.89°N, 84.65°E
发射日期 Oct 21, 2023
运行时间 2.1 years
类型 internet

技术详情

分类 Payload
质量 730.00 kg
干质量 700.00 kg
总质量 730.00 kg
长度 0.30 m
直径 4.10 m
跨度 29.00 m
形状 Box + pan
制造商 SPXS
平台类型 Starlink V2M
阶段状态 In Orbit
所有者/国家 SPXS/US

大型星座

Loading constellations...